CZ-6A DEB

Satellite information

Favourite Embed

Satellite Type and Status

DEBRISIN ORBIT

Key statistics

Satellite CZ-6A DEB at a glance.

Uptime

1128

Days in orbit

Revolutions

≈ 14.4

Per day

Orbit

SSO

Sun Synchronous Orbit

Inclination

98.7

Latest

Satellite identification and parameters

Extended collection of information and parameters for CZ-6A DEB.

Object identification

Identified? True

Debris? True

Object name: CZ-6A DEB

International designator: 2022-151AGM

Object number (NORAD): 56661

Object ID (CCSDS): 56661

Country: PEOPLES REPUBLIC OF CHINA (PRC)

Current information (Y/N): Y

RCS size: SMALL

Orbital parameters

Period: 100.018 minutes

Inclination: 98.7091 deg

SMA: 7137.497 km

Apoapsis: 832.81 km

Periapsis: 685.915 km

RAAN: 29.4966 deg

Eccentricy: 0.01029039

Argument of periapsis: 124.3635 deg

Mean anomaly: 236.7339 deg

Mean motion: 14.3973915 rev/day

Mean motion (dot): 0.00001093 rev/day2

B* drag term: 0.00034213803 1/REarth

Two-line elements (TLE)

Creation date: Dec. 11, 2025, 10:54 a.m.

Reference frame: TEME

Reference center: EARTH

Epoch: Dec. 11, 2025, 1:47 a.m. UTC

TLE line 0: 0 CZ-6A DEB

TLE line 1: 1 56661U 22151AGM 25345.07458313 .00001093 00000-0 34214-3 0 9995

TLE line 2: 2 56661 98.7091 29.4966 0102904 124.3635 236.7339 14.39739150143290

Live tracking on map

Real-time ground track for satellite CZ-6A DEB.

In-orbit conjunctions

A list of the most updated potential collisions computed for object CZ-6A DEB.

Target Orbit TCA Probability of collision Miss distance Type
FENGYUN 1C DEB SSO 2024-10-24 04:37:47 0.0002457848 59.0 (m) DEBRIS
REX 2 SSO 2024-07-09 23:31:57 0.0001270382 924.0 (m) PAYLOAD

Associated space launch

Chinese satellite reported for atmospheric/ocean/environmental/spatial parameter research purposes, details TBD.

CZ-6A DEB was lifted into orbit during the mission ‘Long March 6A | Yunhai 3’, on board a Long March 6A space rocket.

The launch took place on Nov. 11, 2022, 10:52 p.m. from Launch Complex 9A.

For more information about the launch, click the button.

Launch to space Long March 6A | Yunhai 3
Long March 6A | Yunhai 3

Agency: N/A

Status: Launch Successful

Launch date: Nov. 11, 2022, 10:52 p.m. UTC

Rocket: Long March 6A

Launch pad: Launch Complex 9A

Location: Taiyuan Satellite Launch Center, People's Republic of China

...

Latest news about this satellite

There are no fresh news available about this satellite. Check back as we update our databases every day.


Newsletter sign-up

Weekly statistics, charts and insights to help you stay on top of the space industry.